Irkutsk, Russia

12:45 PM +08 on July 16, 2018 (GMT +0800)
Irkutsk

Weather History for UIII - July, 2018

Change the Weather History Date:

Thursday, July 12, 2018

  Actual Average Record
Temperature  
Mean Temperature 62 °F -  
Max Temperature 70 °F - - ()
Min Temperature 53 °F - - ()
Degree Days  
Heating Degree Days 4    
Growing Degree Days 12 (Base 50)    
Moisture  
Dew Point 55 °F    
Average Humidity 83    
Maximum Humidity 100    
Minimum Humidity 43    
Precipitation  
Precipitation 0.04 in - - ()
Sea Level Pressure  
Sea Level Pressure 29.67 in    
Wind  
Wind Speed 8 mph ()    
Max Wind Speed 16 mph    
Max Gust Speed -    
Visibility 6.6 miles    
Events Rain    
T = Trace of Precipitation, MM = Missing Value Source: Averaged Metar Reports

Daily Weather History Graph

Daily Weather History Graph

Search for Another Location

Airport or City:

Astronomy

Jul. 12, 2018 Rise Set
Actual Time 4:55 AM +08 9:20 PM +08
Civil Twilight 4:08 AM +08 10:07 PM +08
Nautical Twilight 2:56 AM +08 11:17 PM +08
Astronomical Twilight 1:40 AM +08 12:35 AM +08
Moon 3:55 AM +08 (7/12) 8:26 PM +08 (7/12)
Length of Visible Light 17h 59m
Length of Day
16h 25m
Waning Crescent, 1% of the Moon is Illuminated
Jul 12
Waning Crescent
Jul 13
New
Jul 20
First Quarter
Jul 28
Full
Aug 5
Last Quarter

Hourly Weather History & Observations

Time (+08) Temp. Dew Point Humidity Pressure Visibility Wind Dir Wind Speed Gust Speed Precip Events Conditions
12:00 AM 55.4 °F 53.6 °F 94% 29.71 in 6.2 mi West 6.7 mph - N/A Rain Light Rain Showers
12:30 AM 55.4 °F 53.6 °F 94% 29.71 in 6.2 mi West 6.7 mph - N/A Rain Light Rain Showers
1:00 AM 55.4 °F 53.6 °F 94% 29.68 in 6.2 mi West 6.7 mph - N/A Rain Light Rain Showers
1:30 AM 55.4 °F 53.6 °F 94% 29.68 in 6.2 mi West 8.9 mph - N/A Rain Light Rain Showers
2:00 AM 55 °F 54 °F 94% 29.70 in - WSW 2.2 mph - - Rain Light Rain Showers
2:00 AM 55.4 °F 53.6 °F 94% 29.68 in 6.2 mi WNW 6.7 mph - N/A Rain Light Rain Showers
2:30 AM 55.4 °F 53.6 °F 94% 29.68 in 6.2 mi West 6.7 mph - N/A Rain Light Rain Showers
3:00 AM 55.4 °F 53.6 °F 94% 29.65 in 6.2 mi WNW 6.7 mph - N/A   Mostly Cloudy
3:30 AM 55.4 °F 53.6 °F 94% 29.65 in 6.2 mi NW 6.7 mph - N/A   Mostly Cloudy
4:00 AM 55.4 °F 53.6 °F 94% 29.65 in 6.2 mi NW 4.5 mph - N/A   Scattered Clouds
5:00 AM 54 °F 54 °F 99% 29.69 in 6 mi West 4.5 mph - -   Partly Cloudy
5:00 AM 55.4 °F 53.6 °F 94% 29.65 in 6.2 mi WNW 8.9 mph - N/A   Scattered Clouds
5:30 AM 55.4 °F 53.6 °F 94% 29.68 in 6.2 mi WNW 8.9 mph - N/A   Scattered Clouds
6:00 AM 55.4 °F 53.6 °F 94% 29.68 in 6.2 mi NW 8.9 mph - N/A   Scattered Clouds
6:30 AM 53.6 °F 53.6 °F 100% 29.68 in 6.2 mi NW 8.9 mph - N/A   Partly Cloudy
7:00 AM 53.6 °F 53.6 °F 100% 29.68 in - NNW 4.5 mph - N/A   Clear
7:30 AM 55.4 °F 53.6 °F 94% 29.68 in - NW 4.5 mph - N/A   Clear
8:00 AM 57 °F 54 °F 86% 29.69 in 12 mi WNW 6.7 mph - -   Partly Cloudy
8:00 AM 57.2 °F 53.6 °F 88% 29.68 in - WNW 6.7 mph - N/A   Clear
8:30 AM 57.2 °F 53.6 °F 88% 29.68 in - NW 8.9 mph - N/A   Clear
9:00 AM 59.0 °F 53.6 °F 82% 29.68 in - WNW 8.9 mph - N/A   Clear
9:30 AM 59.0 °F 55.4 °F 88% 29.68 in - WNW 6.7 mph - N/A   Clear
10:00 AM 62.6 °F 57.2 °F 82% 29.65 in - WNW 6.7 mph - N/A   Clear
10:30 AM 64.4 °F 55.4 °F 73% 29.65 in 6.2 mi WNW 13.4 mph - N/A   Partly Cloudy
11:00 AM 62.6 °F 55.4 °F 77% 29.65 in 6.2 mi WNW 13.4 mph - N/A   Scattered Clouds
11:30 AM 66.2 °F 55.4 °F 68% 29.65 in 6.2 mi WNW 13.4 mph - N/A   Scattered Clouds
12:00 PM 68.0 °F 55.4 °F 64% 29.65 in 6.2 mi WNW 11.2 mph - N/A   Mostly Cloudy
12:30 PM 66.2 °F 53.6 °F 64% 29.65 in 6.2 mi WNW 13.4 mph - N/A   Mostly Cloudy
1:00 PM 69.8 °F 55.4 °F 60% 29.65 in 6.2 mi WNW 13.4 mph - N/A   Scattered Clouds
1:30 PM 68.0 °F 51.8 °F 56% 29.65 in 6.2 mi WNW 15.7 mph - N/A   Scattered Clouds
2:00 PM 71 °F 53 °F 43% 29.61 in 12 mi WNW 8.9 mph - -   Mostly Cloudy
2:00 PM 69.8 °F 51.8 °F 53% 29.65 in 6.2 mi WNW 11.2 mph - N/A   Scattered Clouds
2:30 PM 68.0 °F 53.6 °F 60% 29.65 in 6.2 mi NNW 15.7 mph - N/A   Mostly Cloudy
3:00 PM 66.2 °F 53.6 °F 64% 29.65 in 6.2 mi NNW 11.2 mph - N/A   Mostly Cloudy
3:30 PM 68.0 °F 53.6 °F 60% 29.65 in 6.2 mi NNW 11.2 mph - N/A   Mostly Cloudy
4:00 PM 64.4 °F 57.2 °F 77% 29.65 in 6.2 mi NNW 13.4 mph - N/A   Scattered Clouds
4:30 PM 66.2 °F 53.6 °F 64% 29.65 in 6.2 mi NW 13.4 mph - N/A   Scattered Clouds
5:00 PM 65 °F 54 °F 58% 29.65 in 12 mi NW 6.7 mph - - Rain Light Rain Showers
5:00 PM 64.4 °F 55.4 °F 73% 29.65 in 6.2 mi NW 11.2 mph - N/A Rain Light Rain Showers
5:30 PM 62.6 °F 55.4 °F 77% 29.65 in 6.2 mi NW 11.2 mph - N/A   Scattered Clouds
6:00 PM 62.6 °F 55.4 °F 77% 29.65 in 6.2 mi NW 13.4 mph - N/A Rain Light Rain Showers
6:30 PM 60.8 °F 57.2 °F 88% 29.68 in 6.2 mi NW 11.2 mph - N/A Rain Light Rain Showers
7:00 PM 57.2 °F 57.2 °F 100% 29.68 in 6.2 mi WNW 6.7 mph - N/A Rain Light Rain Showers
7:30 PM 59.0 °F 57.2 °F 94% 29.68 in 6.2 mi WNW 6.7 mph - N/A Rain Light Rain Showers
8:00 PM 59 °F 56 °F 86% 29.68 in 31 mi West 6.7 mph - - Rain Light Rain Showers
8:00 PM 59.0 °F 57.2 °F 94% 29.68 in 6.2 mi West 11.2 mph - N/A Rain Light Rain Showers
8:30 PM 59.0 °F 57.2 °F 94% 29.68 in 6.2 mi West 11.2 mph - N/A   Mostly Cloudy
9:00 PM 59.0 °F 57.2 °F 94% 29.68 in 6.2 mi West 8.9 mph - N/A   Mostly Cloudy
9:30 PM 59.0 °F 57.2 °F 94% 29.68 in 6.2 mi West 6.7 mph - N/A   Mostly Cloudy
10:00 PM 59.0 °F 57.2 °F 94% 29.71 in 6.2 mi WNW 6.7 mph - N/A   Mostly Cloudy
10:30 PM 59.0 °F 57.2 °F 94% 29.68 in 6.2 mi WNW 6.7 mph - N/A   Scattered Clouds
11:00 PM 59.0 °F 57.2 °F 94% 29.68 in 6.2 mi West 4.5 mph - N/A   Scattered Clouds
11:30 PM 59.0 °F 57.2 °F 94% 29.68 in 6.2 mi West 4.5 mph - N/A   Scattered Clouds